Time,TemperatureF,DewpointF,PressureIn,WindDirection,WindDirectionDegrees,WindSpeedMPH,WindSpeedGustMPH,Humidity,HourlyPrecipIn,Conditions,Clouds,dailyrainin,SoftwareType,DateUTC
2013-03-02 00:06:00,-999.0,-99.9,30.20,ESE,117,1.0,2.0,-999,0.00,,,0.07,weatherlink.com 1.10,2013-03-02 08:06:00,
2013-03-02 00:21:00,-999.0,-99.9,30.19,ESE,117,1.0,3.0,-999,0.00,,,0.07,weatherlink.com 1.10,2013-03-02 08:21:00,
2013-03-02 00:36:00,-999.0,-99.9,30.19,ESE,117,0.0,2.0,-999,0.00,,,0.07,weatherlink.com 1.10,2013-03-02 08:36:00,
2013-03-02 00:51:00,-999.0,-99.9,30.19,ESE,117,0.0,1.0,-999,0.01,,,0.08,weatherlink.com 1.10,2013-03-02 08:51:00,
2013-03-02 01:06:00,-999.0,-99.9,30.19,ESE,117,0.0,1.0,-999,0.01,,,0.08,weatherlink.com 1.10,2013-03-02 09:06:00,
2013-03-02 01:21:00,-999.0,-99.9,30.19,ESE,117,0.0,0.0,-999,0.01,,,0.00,weatherlink.com 1.10,2013-03-02 09:21:00,
2013-03-02 01:36:00,-999.0,-99.9,30.19,ESE,117,0.0,0.0,-999,0.01,,,0.00,weatherlink.com 1.10,2013-03-02 09:36:00,
2013-03-02 01:51:00,-999.0,-99.9,30.19,ESE,117,0.0,0.0,-999,0.00,,,0.00,weatherlink.com 1.10,2013-03-02 09:51:00,
2013-03-02 02:06:00,-999.0,-99.9,30.18,ESE,117,0.0,3.0,-999,0.00,,,0.00,weatherlink.com 1.10,2013-03-02 10:06:00,
2013-03-02 02:21:00,-999.0,-99.9,30.17,ESE,117,0.0,3.0,-999,0.00,,,0.00,weatherlink.com 1.10,2013-03-02 10:21:00,
2013-03-02 02:36:00,-999.0,-99.9,30.16,ESE,117,1.0,2.0,-999,0.00,,,0.00,weatherlink.com 1.10,2013-03-02 10:36:00,
2013-03-02 02:51:00,-999.0,-99.9,30.16,South,172,0.0,2.0,-999,0.00,,,0.00,weatherlink.com 1.10,2013-03-02 10:51:00,
2013-03-02 03:07:00,-999.0,-99.9,30.15,SSE,165,0.0,5.0,-999,0.00,,,0.00,weatherlink.com 1.10,2013-03-02 11:07:00,
2013-03-02 03:22:00,-999.0,-99.9,30.14,SSE,165,0.0,2.0,-999,0.00,,,0.00,weatherlink.com 1.10,2013-03-02 11:22:00,
2013-03-02 03:37:00,-999.0,-99.9,30.13,South,186,0.0,3.0,-999,0.00,,,0.00,weatherlink.com 1.10,2013-03-02 11:37:00,
2013-03-02 03:52:00,-999.0,-99.9,30.13,South,186,0.0,1.0,-999,0.00,,,0.00,weatherlink.com 1.10,2013-03-02 11:52:00,
2013-03-02 04:07:00,-999.0,-99.9,30.12,South,186,0.0,2.0,-999,0.00,,,0.00,weatherlink.com 1.10,2013-03-02 12:07:00,
2013-03-02 04:22:00,-999.0,-99.9,30.12,South,186,0.0,0.0,-999,0.00,,,0.00,weatherlink.com 1.10,2013-03-02 12:22:00,
2013-03-02 04:37:00,-999.0,-99.9,30.13,South,186,0.0,0.0,-999,0.00,,,0.00,weatherlink.com 1.10,2013-03-02 12:37:00,
2013-03-02 04:52:00,-999.0,-99.9,30.12,South,186,0.0,2.0,-999,0.00,,,0.00,weatherlink.com 1.10,2013-03-02 12:52:00,
2013-03-02 05:07:00,-999.0,-99.9,30.11,South,186,0.0,2.0,-999,0.00,,,0.00,weatherlink.com 1.10,2013-03-02 13:07:00,
2013-03-02 05:22:00,-999.0,-99.9,30.12,South,187,0.0,2.0,-999,0.00,,,0.00,weatherlink.com 1.10,2013-03-02 13:22:00,
2013-03-02 05:37:00,-999.0,-99.9,30.11,South,184,0.0,1.0,-999,0.00,,,0.00,weatherlink.com 1.10,2013-03-02 13:37:00,
2013-03-02 05:52:00,-999.0,-99.9,30.09,SE,132,0.0,3.0,-999,0.00,,,0.00,weatherlink.com 1.10,2013-03-02 13:52:00,
2013-03-02 06:07:00,-999.0,-99.9,30.09,South,183,1.0,2.0,-999,0.00,,,0.00,weatherlink.com 1.10,2013-03-02 14:07:00,
2013-03-02 06:23:00,-999.0,-99.9,30.09,ENE,63,0.0,2.0,-999,0.00,,,0.00,weatherlink.com 1.10,2013-03-02 14:23:00,
2013-03-02 06:38:00,-999.0,-99.9,30.09,NE,39,0.0,4.0,-999,0.00,,,0.00,weatherlink.com 1.10,2013-03-02 14:38:00,
2013-03-02 06:53:00,-999.0,-99.9,30.08,East,82,0.0,5.0,-999,0.00,,,0.00,weatherlink.com 1.10,2013-03-02 14:53:00,
2013-03-02 07:08:00,-999.0,-99.9,30.08,SW,236,0.0,3.0,-999,0.01,,,0.01,weatherlink.com 1.10,2013-03-02 15:08:00,
2013-03-02 07:23:00,-999.0,-99.9,30.08,SW,236,0.0,0.0,-999,0.01,,,0.01,weatherlink.com 1.10,2013-03-02 15:23:00,
2013-03-02 07:38:00,-999.0,-99.9,30.08,SW,236,0.0,3.0,-999,0.01,,,0.01,weatherlink.com 1.10,2013-03-02 15:38:00,
2013-03-02 07:53:00,-999.0,-99.9,30.07,SW,236,0.0,0.0,-999,0.01,,,0.01,weatherlink.com 1.10,2013-03-02 15:53:00,
2013-03-02 08:08:00,-999.0,-99.9,30.06,SW,236,0.0,1.0,-999,0.00,,,0.01,weatherlink.com 1.10,2013-03-02 16:08:00,
2013-03-02 08:23:00,-999.0,-99.9,30.06,SW,236,0.0,0.0,-999,0.00,,,0.01,weatherlink.com 1.10,2013-03-02 16:23:00,
2013-03-02 08:38:00,-999.0,-99.9,30.06,SW,236,0.0,0.0,-999,0.00,,,0.01,weatherlink.com 1.10,2013-03-02 16:38:00,
2013-03-02 08:53:00,-999.0,-99.9,30.05,SW,236,0.0,2.0,-999,0.00,,,0.01,weatherlink.com 1.10,2013-03-02 16:53:00,
2013-03-02 09:08:00,-999.0,-99.9,30.05,SW,236,0.0,3.0,-999,0.00,,,0.01,weatherlink.com 1.10,2013-03-02 17:08:00,
2013-03-02 09:23:00,-999.0,-99.9,30.05,SW,236,0.0,2.0,-999,0.00,,,0.01,weatherlink.com 1.10,2013-03-02 17:23:00,
2013-03-02 09:38:00,-999.0,-99.9,30.04,ESE,121,0.0,3.0,-999,0.00,,,0.01,weatherlink.com 1.10,2013-03-02 17:38:00,
2013-03-02 09:54:00,-999.0,-99.9,30.04,SSW,207,4.0,4.0,-999,0.00,,,0.01,weatherlink.com 1.10,2013-03-02 17:54:00,
2013-03-02 10:09:00,-999.0,-99.9,30.04,SSW,208,0.0,2.0,-999,0.00,,,0.01,weatherlink.com 1.10,2013-03-02 18:09:00,
2013-03-02 10:24:00,-999.0,-99.9,30.04,SSW,207,3.0,3.0,-999,0.00,,,0.01,weatherlink.com 1.10,2013-03-02 18:24:00,
2013-03-02 10:39:00,-999.0,-99.9,30.04,WSW,237,0.0,3.0,-999,0.00,,,0.01,weatherlink.com 1.10,2013-03-02 18:39:00,
2013-03-02 10:54:00,-999.0,-99.9,30.03,East,87,4.0,4.0,-999,0.00,,,0.01,weatherlink.com 1.10,2013-03-02 18:54:00,
2013-03-02 11:09:00,-999.0,-99.9,30.02,East,92,2.0,4.0,-999,0.00,,,0.01,weatherlink.com 1.10,2013-03-02 19:09:00,
2013-03-02 11:24:00,-999.0,-99.9,30.01,East,87,1.0,5.0,-999,0.00,,,0.01,weatherlink.com 1.10,2013-03-02 19:24:00,
2013-03-02 11:39:00,-999.0,-99.9,30.02,WSW,245,2.0,4.0,-999,0.00,,,0.01,weatherlink.com 1.10,2013-03-02 19:39:00,
2013-03-02 11:54:00,-999.0,-99.9,30.01,West,280,1.0,4.0,-999,0.00,,,0.01,weatherlink.com 1.10,2013-03-02 19:54:00,
2013-03-02 12:09:00,-999.0,-99.9,30.01,West,267,0.0,4.0,-999,0.00,,,0.01,weatherlink.com 1.10,2013-03-02 20:09:00,
2013-03-02 12:24:00,-999.0,-99.9,30.00,WSW,257,1.0,3.0,-999,0.00,,,0.01,weatherlink.com 1.10,2013-03-02 20:24:00,
2013-03-02 12:39:00,-999.0,-99.9,30.00,WSW,255,6.0,6.0,-999,0.00,,,0.01,weatherlink.com 1.10,2013-03-02 20:39:00,
2013-03-02 12:54:00,-999.0,-99.9,30.01,WSW,256,4.0,8.0,-999,0.01,,,0.02,weatherlink.com 1.10,2013-03-02 20:54:00,
2013-03-02 13:09:00,-999.0,-99.9,30.00,NNW,340,0.0,5.0,-999,0.01,,,0.02,weatherlink.com 1.10,2013-03-02 21:09:00,
2013-03-02 13:25:00,-999.0,-99.9,29.99,SSE,163,0.0,5.0,-999,0.01,,,0.02,weatherlink.com 1.10,2013-03-02 21:25:00,
2013-03-02 13:40:00,-999.0,-99.9,30.01,SW,231,1.0,8.0,-999,0.00,,,0.02,weatherlink.com 1.10,2013-03-02 21:40:00,
2013-03-02 13:55:00,-999.0,-99.9,30.01,West,277,15.0,17.0,-999,0.02,,,0.04,weatherlink.com 1.10,2013-03-02 21:55:00,
2013-03-02 14:10:00,-999.0,-99.9,30.02,West,277,12.0,14.0,-999,0.03,,,0.05,weatherlink.com 1.10,2013-03-02 22:10:00,
2013-03-02 14:25:00,-999.0,-99.9,30.02,WSW,244,5.0,11.0,-999,0.03,,,0.05,weatherlink.com 1.10,2013-03-02 22:25:00,
2013-03-02 14:40:00,-999.0,-99.9,30.02,WSW,250,12.0,20.0,-999,0.04,,,0.06,weatherlink.com 1.10,2013-03-02 22:40:00,
2013-03-02 14:55:00,-999.0,-99.9,30.02,SSW,192,0.0,9.0,-999,0.01,,,0.06,weatherlink.com 1.10,2013-03-02 22:55:00,
2013-03-02 15:10:00,-999.0,-99.9,30.03,SW,223,1.0,5.0,-999,0.01,,,0.06,weatherlink.com 1.10,2013-03-02 23:10:00,
2013-03-02 15:25:00,-999.0,-99.9,30.03,WSW,244,0.0,9.0,-999,0.01,,,0.06,weatherlink.com 1.10,2013-03-02 23:25:00,
2013-03-02 15:40:00,-999.0,-99.9,30.03,West,259,0.0,5.0,-999,0.00,,,0.06,weatherlink.com 1.10,2013-03-02 23:40:00,
2013-03-02 15:55:00,-999.0,-99.9,30.03,SSW,193,0.0,3.0,-999,0.00,,,0.06,weatherlink.com 1.10,2013-03-02 23:55:00,
2013-03-02 16:10:00,-999.0,-99.9,30.03,WSW,255,4.0,6.0,-999,0.00,,,0.06,weatherlink.com 1.10,2013-03-03 00:10:00,
2013-03-02 16:25:00,-999.0,-99.9,30.03,SW,235,2.0,9.0,-999,0.02,,,0.08,weatherlink.com 1.10,2013-03-03 00:25:00,
2013-03-02 16:40:00,-999.0,-99.9,30.03,SSW,192,1.0,6.0,-999,0.02,,,0.08,weatherlink.com 1.10,2013-03-03 00:40:00,
2013-03-02 16:56:00,-999.0,-99.9,30.03,WSW,248,2.0,7.0,-999,0.02,,,0.08,weatherlink.com 1.10,2013-03-03 00:56:00,
2013-03-02 17:11:00,-999.0,-99.9,30.04,SSW,193,0.0,6.0,-999,0.02,,,0.08,weatherlink.com 1.10,2013-03-03 01:11:00,
2013-03-02 17:26:00,-999.0,-99.9,30.05,WSW,244,4.0,8.0,-999,0.00,,,0.08,weatherlink.com 1.10,2013-03-03 01:26:00,
2013-03-02 17:41:00,-999.0,-99.9,30.05,SSW,211,3.0,7.0,-999,0.00,,,0.08,weatherlink.com 1.10,2013-03-03 01:41:00,
2013-03-02 17:56:00,-999.0,-99.9,30.05,East,92,2.0,10.0,-999,0.00,,,0.08,weatherlink.com 1.10,2013-03-03 01:56:00,
2013-03-02 18:11:00,-999.0,-99.9,30.06,SSW,199,0.0,11.0,-999,0.02,,,0.10,weatherlink.com 1.10,2013-03-03 02:11:00,
2013-03-02 18:26:00,-999.0,-99.9,30.07,SW,230,5.0,8.0,-999,0.02,,,0.10,weatherlink.com 1.10,2013-03-03 02:26:00,
2013-03-02 18:41:00,-999.0,-99.9,30.07,SE,134,1.0,3.0,-999,0.02,,,0.10,weatherlink.com 1.10,2013-03-03 02:41:00,
2013-03-02 18:56:00,-999.0,-99.9,30.07,SE,138,1.0,2.0,-999,0.02,,,0.10,weatherlink.com 1.10,2013-03-03 02:56:00,
2013-03-02 19:11:00,-999.0,-99.9,30.09,WSW,253,1.0,7.0,-999,0.01,,,0.11,weatherlink.com 1.10,2013-03-03 03:11:00,
2013-03-02 19:26:00,-999.0,-99.9,30.10,SSW,202,0.0,5.0,-999,0.01,,,0.11,weatherlink.com 1.10,2013-03-03 03:26:00,
2013-03-02 19:41:00,-999.0,-99.9,30.09,NNW,336,0.0,4.0,-999,0.01,,,0.11,weatherlink.com 1.10,2013-03-03 03:41:00,
2013-03-02 19:56:00,-999.0,-99.9,30.10,SE,138,2.0,4.0,-999,0.01,,,0.11,weatherlink.com 1.10,2013-03-03 03:56:00,
2013-03-02 20:12:00,-999.0,-99.9,30.11,SE,136,1.0,3.0,-999,0.00,,,0.11,weatherlink.com 1.10,2013-03-03 04:12:00,
2013-03-02 20:27:00,-999.0,-99.9,30.11,South,169,5.0,8.0,-999,0.00,,,0.11,weatherlink.com 1.10,2013-03-03 04:27:00,
2013-03-02 20:42:00,-999.0,-99.9,30.12,West,261,13.0,13.0,-999,0.00,,,0.11,weatherlink.com 1.10,2013-03-03 04:42:00,
2013-03-02 20:57:00,-999.0,-99.9,30.11,SSW,205,2.0,11.0,-999,0.03,,,0.14,weatherlink.com 1.10,2013-03-03 04:57:00,
2013-03-02 21:12:00,-999.0,-99.9,30.12,West,273,3.0,15.0,-999,0.10,,,0.21,weatherlink.com 1.10,2013-03-03 05:12:00,
2013-03-02 21:27:00,-999.0,-99.9,30.12,WSW,250,4.0,13.0,-999,0.11,,,0.22,weatherlink.com 1.10,2013-03-03 05:27:00,
2013-03-02 21:42:00,-999.0,-99.9,30.13,SSE,160,0.0,3.0,-999,0.11,,,0.22,weatherlink.com 1.10,2013-03-03 05:42:00,
2013-03-02 21:57:00,-999.0,-99.9,30.13,SSE,157,2.0,2.0,-999,0.08,,,0.22,weatherlink.com 1.10,2013-03-03 05:57:00,
2013-03-02 22:12:00,-999.0,-99.9,30.13,SSE,165,1.0,3.0,-999,0.01,,,0.22,weatherlink.com 1.10,2013-03-03 06:12:00,
2013-03-02 22:27:00,-999.0,-99.9,30.13,SSE,167,0.0,3.0,-999,0.00,,,0.22,weatherlink.com 1.10,2013-03-03 06:27:00,
2013-03-02 22:42:00,-999.0,-99.9,30.13,South,171,2.0,3.0,-999,0.00,,,0.22,weatherlink.com 1.10,2013-03-03 06:42:00,
2013-03-02 22:57:00,-999.0,-99.9,30.13,SSE,163,0.0,2.0,-999,0.00,,,0.22,weatherlink.com 1.10,2013-03-03 06:57:00,
2013-03-02 23:12:00,-999.0,-99.9,30.13,South,169,1.0,2.0,-999,0.00,,,0.22,weatherlink.com 1.10,2013-03-03 07:12:00,
2013-03-02 23:27:00,-999.0,-99.9,30.13,SSE,151,1.0,3.0,-999,0.00,,,0.22,weatherlink.com 1.10,2013-03-03 07:27:00,
2013-03-02 23:43:00,-999.0,-99.9,30.13,SSE,156,0.0,2.0,-999,0.00,,,0.22,weatherlink.com 1.10,2013-03-03 07:43:00,
2013-03-02 23:58:00,-999.0,-99.9,30.13,SSE,153,0.0,5.0,-999,0.01,,,0.23,weatherlink.com 1.10,2013-03-03 07:58:00,